This is the latest recevied weather packets stored in our database for station/object OE5HCE. If no packets are shown the sender has not sent any weather packets the latest 10 day(s).
| Time | Temp. | Humidity | Pressure | Rain* | Wind** | Luminosity | Snow |
|---|---|---|---|---|---|---|---|
| 1787888759 | 17.22° C | 53% | 1012.3 hPa | 0 mm | - | 0 W/m² | - |
| 1787887857 | 17.22° C | 54% | 1012.3 hPa | 0 mm | - | 0 W/m² | - |
| 1787886956 | 17.78° C | 57% | 1012.5 hPa | 0 mm | - | 0 W/m² | - |
| 1787886055 | 17.78° C | 59% | 1012.5 hPa | 0 mm | - | 0 W/m² | - |
| 1787885152 | 17.78° C | 63% | 1012.5 hPa | 0 mm | - | 0 W/m² | - |
| 1787884255 | 17.78° C | 68% | 1012.4 hPa | 0 mm | - | 0 W/m² | - |
| 1787883352 | 17.78° C | 75% | 1012.4 hPa | 0 mm | - | 0 W/m² | - |
| 1787882448 | 18.33° C | 76% | 1012.4 hPa | 0 mm | - | 0 W/m² | - |
| 1787881547 | 18.33° C | 77% | 1012.5 hPa | 0 mm | - | 0 W/m² | - |
| 1787880642 | 18.89° C | 77% | 1012.4 hPa | 0 mm | - | 0 W/m² | - |
| 1787879763 | 18.89° C | 76% | 1012.4 hPa | 0 mm | - | 0 W/m² | - |
| 1787878839 | 19.44° C | 76% | 1012.5 hPa | 0 mm | - | 0 W/m² | - |
| 1787877936 | 19.44° C | 76% | 1012.3 hPa | 0 mm | - | 0 W/m² | - |
| 1787877038 | 19.44° C | 75% | 1012.4 hPa | 0 mm | - | 0 W/m² | - |
| 1787876134 | 20° C | 75% | 1012.4 hPa | 0 mm | - | 0 W/m² | - |
| 1787875231 | 20° C | 74% | 1012.7 hPa | 0 mm | - | 0 W/m² | - |
| 1787874329 | 20.56° C | 74% | 1012.8 hPa | 0 mm | - | 0 W/m² | - |
| 1787873426 | 20.56° C | 73% | 1013.1 hPa | 0 mm | - | 0 W/m² | - |
| 1787872524 | 20.56° C | 73% | 1013.2 hPa | 0 mm | - | 0 W/m² | - |
| 1787871622 | 21.11° C | 72% | 1013.3 hPa | 0 mm | - | 0 W/m² | - |
| 1787870780 | 21.11° C | 72% | 1013.4 hPa | 0 mm | - | 0 W/m² | - |
| 1787869817 | 21.11° C | 71% | 1013.5 hPa | 0 mm | - | 0 W/m² | - |
| 1787868926 | 21.67° C | 71% | 1013.6 hPa | 0 mm | - | 0 W/m² | - |
| 1787868015 | 21.67° C | 70% | 1013.7 hPa | 0 mm | - | 0 W/m² | - |
| 1787867112 | 21.67° C | 70% | 1013.7 hPa | 0 mm | - | 0 W/m² | - |
* Rain latest hour (hover to see other rain measurements)
** Current wind speed in m/s (hover to see current wind gust speed)